Location: Brede
(50.9167°N, 0.6000°E)
Time: 21:47:56
(UTC+00:00)

Altair - Pass Details

Date: 03 August 2021
Orbit: 1501 x 1682 km, 47.2° (Epoch: 22 September)

Event Time Altitude Azimuth Distance (km) Brightness Sun altitude
Exits shadow 22:49:44 14° 117° (ESE) 3,394 8.9 -19.9°
Drops below altitude 10° 22:52:56 10° 97° (E) 3,710 9.3 -20.1°
Sets 22:57:44 0° 76° (ENE) 4,670 10.0 -20.3°
